2018-112G (43915 NORAD) Tracking and Keplerian Element Data

This shows tracking and keplerian element data for the satellite.

Feedback or suggestion? Click here.




ElementValue
Catalog43915
Name2018-112G
Epoch Orbit248
Epoch Day16.81369855
Epoch Year2019
RAAN117.3509
Inclination50.0112
Eccentricity0.0005044
Argument of Perigee283.1848
Mean Anonmoly76.8465
Mean Motion13.43623167
Decay Rate-1.32E-06
L11 43915U 18112G 19016.81369855 -.00000132 00000-0 -55264-5 0 9992
L22 43915 50.0112 117.3509 0005044 283.1848 76.8465 13.43623167 2482

Live tracking and technical data element details for 2018-112G (NORAD 43915). 2018-112G can be tracked NOW for your location showing map with azimuth and elevation plus other details from your city location.

Track the satellite on the map from your city or location and see movement details for azimuth, elevation, latitude, longitude, range, height, and movement on the map or in text.







IsCatalogInMostPopularTable: catalog: 43915, numindb: 12
Update: records affected: 1



GetName: 43915 2018-112G

Hit Count: updated at: Thu, 17 Jan 2019 15:58:17 GMT